Regional Weather Roundup
Issued by NWS

Home | Current Version | Previous Version | Graphics & Text | Print | Product List | Glossary On
Versions: 1 2 3 4 5 6 7 8 9 10 11 12 13 14 15 16 17 18 19 20 21 22 23 24 25 26 27 28 29 30 31 32 33 34 35 36 37 38 39 40 41 42 43 44 45 46 47 48 49 50
000
ASUS43 KLMK 270410
RWRKY
KENTUCKY REGIONAL WEATHER ROUNDUP
NATIONAL WEATHER SERVICE LOUISVILLE KY
1200 AM EDT MON APR 27 2015

NOTE "FAIR" INDICATES FEW OR NO CLOUDS BELOW 12,000 FEET
WITH NO SIGNIFICANT WEATHER AND/OR OBSTRUCTIONS TO VISIBILITY.

KYZ001>023-026-027-061>063-070>075-270500-
WESTERN AND SOUTH CENTRAL KENTUCKY

CITY           SKY/WX    TMP DP  RH WIND       PRES   REMARKS
PADUCAH        CLEAR     51  37  58 N8        29.95S
HENDERSON      CLEAR     54  37  54 N7        29.96R
OWENSBORO      CLEAR     53  39  59 NE7       29.95R
HOPKINSVILLE   CLEAR     52  37  57 NW6       29.92S
BOWLING GREEN  CLEAR     51  36  56 CALM      29.92R
GLASGOW        CLEAR     51  36  55 NE3       29.91R
$$

KYZ024-025-028>034-038-045-046-053-270500-
NORTH CENTRAL KENTUCKY

CITY           SKY/WX    TMP DP  RH WIND       PRES   REMARKS
LOUISVILLE/SDF CLEAR     50  37  61 N7        29.92S
LOUISVILLE/LOU CLEAR     50  36  58 N3        29.93S
FORT KNOX      CLEAR     49  36  60 N3        29.91R
$$

KYZ035>037-039>044-047>052-055>060-089>105-270500-
NORTHEAST KENTUCKY

CITY           SKY/WX    TMP DP  RH WIND       PRES   REMARKS
LEXINGTON      CLEAR     46  35  65 N6        29.90S
COVINGTON      CLEAR     43  34  70 CALM      29.91R
FRANKFORT      CLEAR     48  34  58 N6        29.89F
$$

KYZ054-064>069-076>088-106>120-270500-
SOUTHEAST KENTUCKY

CITY           SKY/WX    TMP DP  RH WIND       PRES   REMARKS
JACKSON        CLEAR     50  33  52 N5        29.86R
LONDON         CLEAR     48  37  65 CALM      29.87R
SOMERSET       CLEAR     43  43 100 CALM      29.90R
MIDDLESBORO    CLEAR     44  44 100 CALM      29.87S
MONTICELLO     CLEAR     42  42 100 CALM      29.92R
$$



USA.gov is the U.S. government's official web portal to all federal, state and local government web resources and services.